Location: Huntsville
(41.2590°N, 111.7678°W)
Time: 06:22:32
(UTC+00:00)

Vanguard 3 - Pass Details

Date: 16 June 2021
Orbit: 508 x 3261 km, 33.4° (Epoch: 29 July)

Event Time Altitude Azimuth Distance (km) Brightness Sun altitude
Rises 14:43:44 0° 212° (SSW) 2,594 9.4 29.1°
Reaches altitude 10° 14:46:36 10° 185° (S) 1,791 8.9 29.6°
Maximum altitude 14:48:46 14° 151° (SSE) 1,649 9.2 30.0°
Drops below altitude 10° 14:51:15 10° 118° (ESE) 2,106 10.3 30.5°
Sets 14:55:10 0° 95° (E) 3,425 11.5 31.2°
